| time (UTC) | temp C | wind direction | speed KPH | gust KPH | rain 1hr cm | rain 24hr cm | rain mn cm | humidity % | barometer mb |
| 20260503025326 | 9 | 129 | 0.0 | 0.0 | 0.00 | 0.00 | 0.00 | 87 | 1013.4 |
| 20260503024827 | 9 | 129 | 0.0 | 0.0 | 0.00 | 0.00 | 0.00 | 87 | 1013.4 |
| 20260503024322 | 9 | 129 | 0.0 | 0.0 | 0.00 | 0.00 | 0.00 | 87 | 1013.6 |
| 20260503023822 | 9 | 129 | 0.0 | 0.0 | 0.00 | 0.00 | 0.00 | 87 | 1013.7 |
| 20260503023322 | 9 | 129 | 0.0 | 0.0 | 0.00 | 0.00 | 0.00 | 86 | 1013.7 |
| 20260503022822 | 9 | 129 | 0.0 | 0.0 | 0.00 | 0.00 | 0.00 | 86 | 1013.8 |
| 20260503022322 | 9 | 129 | 0.0 | 0.0 | 0.00 | 0.00 | 0.00 | 86 | 1013.7 |
| 20260503021818 | 9 | 129 | 0.0 | 0.0 | 0.00 | 0.00 | 0.00 | 87 | 1013.7 |
| 20260503021316 | 9 | 129 | 0.0 | 0.0 | 0.00 | 0.00 | 0.00 | 86 | 1013.7 |
| 20260503020814 | 9 | 129 | 0.0 | 0.0 | 0.00 | 0.00 | 0.00 | 86 | 1013.8 |
| 20260503020313 | 9 | 129 | 0.0 | 0.0 | 0.00 | 0.00 | 0.00 | 86 | 1013.7 |
| 20260503020018 | 9 | 134 | 0.0 | 0.0 | 0.00 | 0.00 | 0.00 | 86 | 1013.8 |
| 20260503015905 | 9 | 129 | 0.0 | 0.0 | 0.00 | 0.00 | 0.00 | 86 | 1013.8 |
| 20260503014812 | 9 | 134 | 0.0 | 0.0 | 0.00 | 0.00 | 0.00 | 86 | 1013.8 |
| 20260503014311 | 9 | 133 | 0.0 | 0.0 | 0.00 | 0.00 | 0.00 | 86 | 1013.7 |
| 20260503013808 | 10 | 132 | 0.0 | 0.0 | 0.00 | 0.00 | 0.00 | 85 | 1013.8 |
| 20260503013301 | 10 | 132 | 0.0 | 0.0 | 0.00 | 0.00 | 0.00 | 85 | 1013.8 |
| 20260503012757 | 10 | 132 | 0.0 | 0.0 | 0.00 | 0.00 | 0.00 | 85 | 1013.8 |
| 20260503012250 | 10 | 132 | 0.0 | 0.0 | 0.00 | 0.00 | 0.00 | 85 | 1013.8 |
| 20260503011743 | 10 | 132 | 0.0 | 0.0 | 0.00 | 0.00 | 0.00 | 85 | 1013.9 |
| 20260503011238 | 10 | 132 | 0.0 | 0.0 | 0.00 | 0.00 | 0.00 | 85 | 1013.9 |
| 20260503010731 | 10 | 132 | 0.0 | 0.0 | 0.00 | 0.00 | 0.00 | 85 | 1013.9 |
| 20260503010225 | 10 | 132 | 0.0 | 0.0 | 0.00 | 0.00 | 0.00 | 85 | 1013.9 |
| 20260503005720 | 10 | 132 | 0.0 | 0.0 | 0.00 | 0.00 | 0.00 | 85 | 1014.0 |
| 20260503005213 | 10 | 132 | 0.0 | 0.0 | 0.00 | 0.00 | 0.00 | 85 | 1013.9 |
| 20260503004708 | 10 | 132 | 0.0 | 0.0 | 0.00 | 0.00 | 0.00 | 84 | 1014.1 |
| 20260503004203 | 10 | 132 | 0.0 | 0.0 | 0.00 | 0.00 | 0.00 | 84 | 1014.1 |
| 20260503003656 | 10 | 134 | 0.0 | 0.0 | 0.00 | 0.00 | 0.00 | 84 | 1014.1 |
| 20260503003149 | 11 | 135 | 0.0 | 0.0 | 0.00 | 0.00 | 0.00 | 84 | 1014.1 |
| 20260503002908 | 11 | 134 | 0.0 | 0.0 | 0.00 | 0.00 | 0.00 | 84 | 1014.2 |
| 20260503002140 | 11 | 134 | 0.0 | 0.0 | 0.00 | 0.00 | 0.00 | 84 | 1014.3 |
| 20260503001631 | 11 | 135 | 0.0 | 0.0 | 0.00 | 0.00 | 0.00 | 84 | 1014.3 |
| 20260503001139 | 11 | 135 | 0.0 | 0.0 | 0.00 | 0.00 | 0.00 | 84 | 1014.4 |
| 20260503000619 | 11 | 134 | 0.0 | 0.0 | 0.00 | 0.00 | 0.00 | 84 | 1014.4 |
| 20260503000113 | 11 | 135 | 0.0 | 0.0 | 0.00 | 0.00 | 0.00 | 83 | 1014.4 |
| 20260502235612 | 11 | 138 | 0.0 | 0.0 | 0.00 | 0.00 | 0.00 | 83 | 1014.4 |
| 20260502235057 | 11 | 139 | 0.0 | 0.0 | 0.00 | 0.00 | 0.00 | 83 | 1014.4 |
| 20260502234552 | 12 | 142 | 0.0 | 0.0 | 0.00 | 0.00 | 0.00 | 82 | 1014.5 |
| 20260502234306 | 12 | 141 | 0.0 | 0.0 | 0.00 | 0.00 | 0.00 | 82 | 1014.5 |
| 20260502233539 | 12 | 143 | 0.0 | 0.0 | 0.00 | 0.00 | 0.00 | 82 | 1014.6 |
| 20260502233033 | 12 | 143 | 0.0 | 0.0 | 0.00 | 0.00 | 0.00 | 82 | 1014.5 |
| 20260502232528 | 12 | 143 | 0.0 | 0.0 | 0.00 | 0.00 | 0.00 | 82 | 1014.5 |
| 20260502232249 | 13 | 143 | 0.0 | 0.0 | 0.00 | 0.00 | 0.00 | 82 | 1014.6 |
| 20260502231527 | 13 | 143 | 0.0 | 0.0 | 0.00 | 0.00 | 0.00 | 81 | 1014.6 |
| 20260502231027 | 13 | 143 | 0.0 | 0.0 | 0.00 | 0.00 | 0.00 | 81 | 1014.6 |
| 20260502230526 | 13 | 143 | 0.0 | 0.0 | 0.00 | 0.00 | 0.00 | 80 | 1014.6 |
| 20260502230029 | 13 | 143 | 0.0 | 0.0 | 0.00 | 0.00 | 0.00 | 80 | 1014.6 |
| 20260502225526 | 13 | 143 | 0.0 | 0.0 | 0.00 | 0.00 | 0.00 | 80 | 1014.7 |
| 20260502225026 | 13 | 143 | 0.0 | 0.0 | 0.00 | 0.00 | 0.00 | 80 | 1014.6 |
| 20260502224527 | 13 | 150 | 0.0 | 0.0 | 0.00 | 0.00 | 0.00 | 79 | 1014.7 |
| 20260502224024 | 14 | 141 | 0.0 | 0.0 | 0.00 | 0.00 | 0.00 | 79 | 1014.6 |
| 20260502223525 | 14 | 96 | 0.0 | 0.0 | 0.00 | 0.00 | 0.00 | 77 | 1014.7 |
| 20260502223024 | 15 | 93 | 0.0 | 0.0 | 0.00 | 0.00 | 0.00 | 77 | 1014.7 |
| 20260502222522 | 15 | 86 | 0.0 | 0.0 | 0.00 | 0.00 | 0.00 | 76 | 1014.7 |
| 20260502222022 | 15 | 84 | 0.0 | 0.0 | 0.00 | 0.00 | 0.00 | 74 | 1014.7 |
| 20260502221522 | 16 | 76 | 0.0 | 0.0 | 0.00 | 0.00 | 0.00 | 73 | 1014.8 |
| 20260502221020 | 16 | 40 | 0.0 | 0.0 | 0.00 | 0.00 | 0.00 | 72 | 1014.8 |
| 20260502220744 | 17 | 26 | 0.0 | 0.0 | 0.00 | 0.00 | 0.00 | 71 | 1014.9 |
| 20260502220016 | 17 | 26 | 0.0 | 0.0 | 0.00 | 0.00 | 0.00 | 71 | 1014.9 |
| 20260502215516 | 17 | 28 | 0.0 | 0.0 | 0.00 | 0.00 | 0.00 | 70 | 1014.9 |
| 20260502215011 | 17 | 28 | 0.0 | 0.0 | 0.00 | 0.00 | 0.00 | 70 | 1014.9 |
| 20260502214513 | 17 | 334 | 0.0 | 0.0 | 0.00 | 0.00 | 0.00 | 69 | 1014.9 |
| 20260502214011 | 17 | 334 | 0.0 | 0.0 | 0.00 | 0.00 | 0.00 | 69 | 1015.0 |
| 20260502213511 | 17 | 334 | 0.0 | 0.0 | 0.00 | 0.00 | 0.00 | 69 | 1015.0 |
| 20260502213233 | 17 | 343 | 0.0 | 0.0 | 0.00 | 0.00 | 0.00 | 68 | 1015.1 |
| 20260502212511 | 17 | 27 | 0.0 | 0.0 | 0.00 | 0.00 | 0.00 | 68 | 1015.0 |
| 20260502212012 | 17 | 272 | 0.0 | 0.0 | 0.00 | 0.00 | 0.00 | 68 | 1015.1 |
| 20260502211512 | 17 | 166 | 0.0 | 0.0 | 0.00 | 0.00 | 0.00 | 67 | 1015.1 |
| 20260502211011 | 18 | 353 | 0.0 | 0.0 | 0.00 | 0.00 | 0.00 | 66 | 1015.0 |
| 20260502210508 | 18 | 312 | 0.0 | 0.0 | 0.00 | 0.00 | 0.00 | 66 | 1015.2 |
| 20260502210007 | 17 | 48 | 0.0 | 0.0 | 0.00 | 0.00 | 0.00 | 66 | 1015.3 |
| 20260502205730 | 17 | 74 | 0.0 | 0.0 | 0.00 | 0.00 | 0.00 | 67 | 1015.3 |
| 20260502205009 | 17 | 3 | 0.0 | 0.0 | 0.00 | 0.00 | 0.00 | 68 | 1015.4 |
| 20260502204508 | 16 | 290 | 0.0 | 0.0 | 0.00 | 0.00 | 0.00 | 68 | 1015.5 |
| 20260502204007 | 16 | 114 | 0.0 | 0.0 | 0.00 | 0.00 | 0.00 | 66 | 1015.3 |
| 20260502203509 | 17 | 114 | 0.0 | 0.0 | 0.00 | 0.00 | 0.00 | 66 | 1015.2 |
| 20260502203007 | 17 | 114 | 0.0 | 0.0 | 0.00 | 0.00 | 0.00 | 65 | 1015.1 |
| 20260502202508 | 17 | 114 | 0.0 | 0.0 | 0.00 | 0.00 | 0.00 | 64 | 1015.1 |
| 20260502202003 | 17 | 114 | 0.0 | 0.0 | 0.00 | 0.00 | 0.00 | 64 | 1015.0 |
| 20260502201504 | 17 | 114 | 0.0 | 0.0 | 0.00 | 0.00 | 0.00 | 64 | 1014.8 |
| 20260502201003 | 17 | 114 | 0.0 | 0.0 | 0.00 | 0.00 | 0.00 | 64 | 1014.8 |
| 20260502200503 | 17 | 114 | 0.0 | 0.0 | 0.00 | 0.00 | 0.00 | 63 | 1014.8 |
| 20260502200003 | 17 | 114 | 0.0 | 0.0 | 0.00 | 0.00 | 0.00 | 62 | 1015.0 |
| 20260502195503 | 18 | 114 | 0.0 | 0.0 | 0.00 | 0.00 | 0.00 | 62 | 1014.9 |
| 20260502195003 | 18 | 114 | 0.0 | 0.0 | 0.00 | 0.00 | 0.00 | 62 | 1014.9 |
| 20260502194732 | 18 | 114 | 0.0 | 0.0 | 0.00 | 0.00 | 0.00 | 61 | 1014.9 |
| 20260502194004 | 18 | 115 | 0.0 | 0.0 | 0.00 | 0.00 | 0.00 | 60 | 1014.8 |
| 20260502193459 | 19 | 115 | 0.0 | 0.0 | 0.00 | 0.00 | 0.00 | 59 | 1014.9 |
| 20260502193231 | 19 | 115 | 0.0 | 0.0 | 0.00 | 0.00 | 0.00 | 59 | 1014.9 |
| 20260502192500 | 19 | 115 | 0.0 | 0.0 | 0.00 | 0.00 | 0.00 | 60 | 1014.9 |
| 20260502192013 | 19 | 115 | 0.0 | 0.0 | 0.00 | 0.00 | 0.00 | 59 | 1014.9 |
| 20260502191459 | 19 | 114 | 0.0 | 0.0 | 0.00 | 0.00 | 0.00 | 58 | 1014.9 |
| 20260502190959 | 20 | 109 | 0.0 | 0.0 | 0.00 | 0.00 | 0.00 | 56 | 1015.0 |
| 20260502190501 | 20 | 96 | 0.0 | 0.0 | 0.00 | 0.00 | 0.00 | 55 | 1015.0 |
| 20260502185959 | 20 | 150 | 0.0 | 0.0 | 0.00 | 0.00 | 0.00 | 54 | 1015.0 |
| 20260502185721 | 20 | 150 | 0.0 | 0.0 | 0.00 | 0.00 | 0.00 | 54 | 1015.1 |
| 20260502184955 | 21 | 271 | 0.0 | 0.0 | 0.00 | 0.00 | 0.00 | 52 | 1015.1 |
| 20260502184455 | 21 | 143 | 0.0 | 0.0 | 0.00 | 0.00 | 0.00 | 52 | 1015.0 |
| 20260502183956 | 21 | 141 | 0.0 | 0.0 | 0.00 | 0.00 | 0.00 | 51 | 1015.0 |
| 20260502183456 | 21 | 141 | 0.0 | 0.0 | 0.00 | 0.00 | 0.00 | 51 | 1015.0 |
| 20260502182955 | 21 | 141 | 0.0 | 0.0 | 0.00 | 0.00 | 0.00 | 50 | 1015.1 |
| 20260502182943 | 21 | 141 | 0.0 | 0.0 | 0.00 | 0.00 | 0.00 | 50 | 1015.1 |
| 20260502181955 | 21 | 141 | 0.0 | 0.0 | 0.00 | 0.00 | 0.00 | 50 | 1015.0 |
| 20260502181455 | 21 | 141 | 0.0 | 0.0 | 0.00 | 0.00 | 0.00 | 49 | 1014.9 |
| 20260502180955 | 22 | 141 | 0.0 | 0.0 | 0.00 | 0.00 | 0.00 | 49 | 1014.7 |
| 20260502180451 | 22 | 141 | 0.0 | 0.0 | 0.00 | 0.00 | 0.00 | 48 | 1014.7 |
| 20260502170449 | 23 | 166 | 0.0 | 0.0 | 0.00 | 0.00 | 0.00 | 44 | 1014.8 |
| 20260502163950 | 24 | 180 | 0.0 | 0.0 | 0.00 | 0.00 | 0.00 | 43 | 1015.3 |
| 20260502163447 | 24 | 193 | 0.0 | 0.0 | 0.00 | 0.00 | 0.00 | 41 | 1015.2 |
| 20260502162940 | 24 | 166 | 0.0 | 0.0 | 0.00 | 0.00 | 0.00 | 42 | 1015.2 |
| 20260502162434 | 24 | 175 | 0.0 | 0.0 | 0.00 | 0.00 | 0.00 | 42 | 1015.2 |
| 20260502161930 | 25 | 138 | 0.0 | 0.0 | 0.00 | 0.00 | 0.00 | 42 | 1015.2 |
| 20260502161423 | 24 | 120 | 0.0 | 0.0 | 0.00 | 0.00 | 0.00 | 41 | 1015.4 |
| 20260502160916 | 24 | 179 | 0.0 | 0.0 | 0.00 | 0.00 | 0.00 | 42 | 1015.4 |
| 20260502160410 | 24 | 158 | 0.0 | 0.0 | 0.00 | 0.00 | 0.00 | 42 | 1015.4 |
| 20260502152322 | 24 | 157 | 0.0 | 0.0 | 0.00 | 0.00 | 0.00 | 43 | 1015.9 |
| 20260502151818 | 24 | 139 | 0.0 | 0.0 | 0.00 | 0.00 | 0.00 | 43 | 1016.0 |
| 20260502151310 | 24 | 117 | 0.0 | 0.0 | 0.00 | 0.00 | 0.00 | 42 | 1016.0 |
| 20260502150804 | 24 | 190 | 0.0 | 0.0 | 0.00 | 0.00 | 0.00 | 42 | 1016.2 |
| 20260502150259 | 24 | 141 | 0.0 | 0.0 | 0.00 | 0.00 | 0.00 | 42 | 1016.3 |
| 20260502130713 | 25 | 178 | 0.0 | 0.0 | 0.00 | 0.00 | 0.00 | 41 | 1017.3 |
| 20260502130206 | 24 | 177 | 0.0 | 0.0 | 0.00 | 0.00 | 0.00 | 41 | 1017.4 |
| 20260502123637 | 25 | 206 | 0.0 | 0.0 | 0.00 | 0.00 | 0.00 | 41 | 1017.8 |
| 20260502123348 | 25 | 285 | 0.0 | 0.0 | 0.00 | 0.00 | 0.00 | 40 | 1017.8 |
| 20260502122625 | 25 | 255 | 0.0 | 0.0 | 0.00 | 0.00 | 0.00 | 41 | 1017.9 |
| 20260502122119 | 24 | 247 | 0.0 | 0.0 | 0.00 | 0.00 | 0.00 | 41 | 1017.8 |
| 20260502121614 | 24 | 313 | 0.0 | 0.0 | 0.00 | 0.00 | 0.00 | 41 | 1017.9 |
| 20260502121106 | 24 | 197 | 0.0 | 0.0 | 0.00 | 0.00 | 0.00 | 42 | 1017.9 |
| 20260502120600 | 24 | 154 | 0.0 | 0.0 | 0.00 | 0.00 | 0.00 | 43 | 1017.9 |
| 20260502120108 | 24 | 190 | 0.0 | 0.0 | 0.00 | 0.00 | 0.00 | 41 | 1018.0 |
| 20260502115548 | 24 | 252 | 0.0 | 0.0 | 0.00 | 0.00 | 0.00 | 41 | 1018.2 |
| 20260502115043 | 24 | 278 | 0.0 | 0.0 | 0.00 | 0.00 | 0.00 | 41 | 1018.2 |
| 20260502114800 | 24 | 161 | 0.0 | 0.0 | 0.00 | 0.00 | 0.00 | 42 | 1018.2 |
| 20260502114254 | 23 | 149 | 0.0 | 0.0 | 0.00 | 0.00 | 0.00 | 43 | 1018.2 |
| 20260502113524 | 23 | 186 | 0.0 | 0.0 | 0.00 | 0.00 | 0.00 | 42 | 1018.4 |
| 20260502113019 | 23 | 184 | 0.0 | 0.0 | 0.00 | 0.00 | 0.00 | 42 | 1018.5 |
| 20260502112516 | 23 | 178 | 0.0 | 0.0 | 0.00 | 0.00 | 0.00 | 41 | 1018.6 |
| 20260502112007 | 23 | 154 | 0.0 | 0.0 | 0.00 | 0.00 | 0.00 | 41 | 1018.6 |
| 20260502111500 | 23 | 152 | 0.0 | 0.0 | 0.00 | 0.00 | 0.00 | 42 | 1018.6 |
| 20260502110954 | 23 | 174 | 0.0 | 0.0 | 0.00 | 0.00 | 0.00 | 42 | 1018.7 |
| 20260502110449 | 23 | 204 | 0.0 | 0.0 | 0.00 | 0.00 | 0.00 | 43 | 1018.8 |
| 20260502110207 | 23 | 168 | 0.0 | 0.0 | 0.00 | 0.00 | 0.00 | 42 | 1018.8 |
| 20260502105436 | 23 | 121 | 0.0 | 0.0 | 0.00 | 0.00 | 0.00 | 43 | 1018.9 |
| 20260502104930 | 23 | 177 | 0.0 | 0.0 | 0.00 | 0.00 | 0.00 | 43 | 1018.9 |
| 20260502104425 | 23 | 208 | 0.0 | 0.0 | 0.00 | 0.00 | 0.00 | 42 | 1019.0 |
| 20260502103918 | 23 | 211 | 0.0 | 0.0 | 0.00 | 0.00 | 0.00 | 43 | 1019.0 |
| 20260502103412 | 22 | 147 | 0.0 | 0.0 | 0.00 | 0.00 | 0.00 | 41 | 1019.0 |
| 20260502102907 | 22 | 188 | 0.0 | 0.0 | 0.00 | 0.00 | 0.00 | 41 | 1019.1 |
| 20260502102400 | 22 | 127 | 0.0 | 0.0 | 0.00 | 0.00 | 0.00 | 41 | 1019.1 |
| 20260502101855 | 22 | 166 | 0.0 | 0.0 | 0.00 | 0.00 | 0.00 | 41 | 1019.1 |
| 20260502101617 | 22 | 131 | 0.0 | 0.0 | 0.00 | 0.00 | 0.00 | 41 | 1019.2 |
| 20260502100852 | 22 | 149 | 0.0 | 0.0 | 0.00 | 0.00 | 0.00 | 42 | 1019.2 |
| 20260502100614 | 22 | 118 | 0.0 | 0.0 | 0.00 | 0.00 | 0.00 | 41 | 1019.4 |
| 20260502091349 | 21 | 186 | 0.0 | 0.0 | 0.00 | 0.00 | 0.00 | 44 | 1019.9 |
| 20260502090849 | 21 | 174 | 0.0 | 0.0 | 0.00 | 0.00 | 0.00 | 43 | 1019.9 |
| 20260502090348 | 21 | 166 | 0.0 | 0.0 | 0.00 | 0.00 | 0.00 | 43 | 1020.0 |
| 20260502070831 | 15 | 324 | 0.0 | 0.0 | 0.00 | 0.00 | 0.00 | 59 | 1020.8 |
| 20260502070554 | 16 | 343 | 0.0 | 0.0 | 0.00 | 0.00 | 0.00 | 62 | 1020.8 |
| 20260502065831 | 15 | 348 | 0.0 | 0.0 | 0.00 | 0.00 | 0.00 | 63 | 1020.7 |
| 20260502065343 | 15 | 348 | 0.0 | 0.0 | 0.00 | 0.00 | 0.00 | 64 | 1020.7 |
| 20260502064831 | 14 | 348 | 0.0 | 0.0 | 0.00 | 0.00 | 0.00 | 65 | 1020.8 |
| 20260502064331 | 14 | 0 | 0.0 | 0.0 | 0.00 | 0.00 | 0.00 | 67 | 1020.9 |
| 20260502064103 | 13 | 353 | 0.0 | 0.0 | 0.00 | 0.00 | 0.00 | 69 | 1020.9 |
| 20260502063331 | 13 | 26 | 0.0 | 0.0 | 0.00 | 0.00 | 0.00 | 72 | 1020.9 |
| 20260502062830 | 12 | 28 | 0.0 | 0.0 | 0.00 | 0.00 | 0.00 | 75 | 1021.0 |
| 20260502062548 | 11 | 28 | 0.0 | 0.0 | 0.00 | 0.00 | 0.00 | 76 | 1020.9 |
| 20260502062048 | 10 | 28 | 0.0 | 0.0 | 0.00 | 0.00 | 0.00 | 79 | 1020.9 |
| 20260502061324 | 10 | 28 | 0.0 | 0.0 | 0.00 | 0.00 | 0.00 | 80 | 1020.9 |
| 20260502060823 | 10 | 28 | 0.0 | 0.0 | 0.00 | 0.00 | 0.00 | 81 | 1020.8 |
| 20260502060322 | 9 | 28 | 0.0 | 0.0 | 0.00 | 0.00 | 0.00 | 81 | 1020.9 |
| 20260502055823 | 9 | 30 | 0.0 | 0.0 | 0.00 | 0.00 | 0.00 | 83 | 1020.9 |
| 20260502055322 | 8 | 29 | 0.0 | 0.0 | 0.00 | 0.00 | 0.00 | 84 | 1020.9 |
| 20260502054822 | 8 | 24 | 0.0 | 0.0 | 0.00 | 0.00 | 0.00 | 85 | 1020.9 |
| 20260502054323 | 8 | 24 | 0.0 | 0.0 | 0.00 | 0.00 | 0.00 | 86 | 1020.9 |
| 20260502053823 | 7 | 24 | 0.0 | 0.0 | 0.00 | 0.00 | 0.00 | 86 | 1020.9 |
| 20260502053322 | 6 | 24 | 0.0 | 0.0 | 0.00 | 0.00 | 0.00 | 86 | 1020.9 |
| 20260502052822 | 6 | 24 | 0.0 | 0.0 | 0.00 | 0.00 | 0.00 | 87 | 1020.9 |
| 20260502052323 | 6 | 24 | 0.0 | 0.0 | 0.00 | 0.00 | 0.00 | 86 | 1021.0 |
| 20260502051822 | 6 | 24 | 0.0 | 0.0 | 0.00 | 0.00 | 0.00 | 87 | 1021.0 |
| 20260502051323 | 5 | 24 | 0.0 | 0.0 | 0.00 | 0.00 | 0.00 | 87 | 1021.3 |
| 20260502050823 | 5 | 24 | 0.0 | 0.0 | 0.00 | 0.00 | 0.00 | 86 | 1021.1 |
| 20260502050323 | 5 | 24 | 0.0 | 0.0 | 0.00 | 0.00 | 0.00 | 87 | 1021.1 |
| 20260502045824 | 5 | 24 | 0.0 | 0.0 | 0.00 | 0.00 | 0.00 | 86 | 1021.3 |
| 20260502045322 | 4 | 24 | 0.0 | 0.0 | 0.00 | 0.00 | 0.00 | 86 | 1021.4 |
| 20260502044822 | 4 | 24 | 0.0 | 0.0 | 0.00 | 0.00 | 0.00 | 86 | 1021.4 |
| 20260502044546 | 4 | 24 | 0.0 | 0.0 | 0.00 | 0.00 | 0.00 | 86 | 1021.4 |
| 20260502043822 | 4 | 24 | 0.0 | 0.0 | 0.00 | 0.00 | 0.00 | 86 | 1021.4 |
| 20260502043546 | 4 | 24 | 0.0 | 0.0 | 0.00 | 0.00 | 0.00 | 86 | 1021.4 |
| 20260502043042 | 4 | 24 | 0.0 | 0.0 | 0.00 | 0.00 | 0.00 | 86 | 1021.4 |
| 20260502042324 | 4 | 24 | 0.0 | 0.0 | 0.00 | 0.00 | 0.00 | 86 | 1021.4 |
| 20260502041823 | 4 | 24 | 0.0 | 0.0 | 0.00 | 0.00 | 0.00 | 86 | 1021.1 |
| 20260502041804 | 4 | 24 | 0.0 | 0.0 | 0.00 | 0.00 | 0.00 | 86 | 1021.3 |
| 20260502041302 | 4 | 24 | 0.0 | 0.0 | 0.00 | 0.00 | 0.00 | 86 | 1021.3 |
| 20260502040318 | 4 | 24 | 0.0 | 0.0 | 0.00 | 0.00 | 0.00 | 85 | 1021.4 |
| 20260502035819 | 4 | 24 | 0.0 | 0.0 | 0.00 | 0.00 | 0.00 | 85 | 1021.4 |
| 20260502035543 | 4 | 24 | 0.0 | 0.0 | 0.00 | 0.00 | 0.00 | 85 | 1021.4 |
| 20260502034818 | 5 | 24 | 0.0 | 0.0 | 0.00 | 0.00 | 0.00 | 85 | 1021.3 |
| 20260502034319 | 4 | 24 | 0.0 | 0.0 | 0.00 | 0.00 | 0.00 | 85 | 1021.3 |
| 20260502033819 | 4 | 24 | 0.0 | 0.0 | 0.00 | 0.00 | 0.00 | 85 | 1021.4 |
| 20260502033318 | 4 | 24 | 0.0 | 0.0 | 0.00 | 0.00 | 0.00 | 85 | 1021.4 |
| 20260502032818 | 5 | 24 | 0.0 | 0.0 | 0.00 | 0.00 | 0.00 | 85 | 1021.4 |
| 20260502032332 | 5 | 24 | 0.0 | 0.0 | 0.00 | 0.00 | 0.00 | 85 | 1021.5 |
| 20260502032040 | 5 | 24 | 0.0 | 0.0 | 0.00 | 0.00 | 0.00 | 85 | 1021.5 |
| 20260502031532 | 5 | 24 | 0.0 | 0.0 | 0.00 | 0.00 | 0.00 | 85 | 1021.5 |
| 20260502030815 | 5 | 24 | 0.0 | 0.0 | 0.00 | 0.00 | 0.00 | 85 | 1021.5 |
| 20260502030316 | 5 | 24 | 0.0 | 0.0 | 0.00 | 0.00 | 0.00 | 85 | 1021.5 |
| 20260502025814 | 5 | 24 | 0.0 | 0.0 | 0.00 | 0.00 | 0.00 | 85 | 1021.5 |